Location: DARK SKY Beskydy - Park tmavé oblohy, www.darkskybeskydy.cz
(49.4926°N, 18.5016°E)
Time: 12:45:27
(UTC+02:00)

Vanguard 1 - Pass Details

Date: 23 February 2024
Orbit: 653 x 3825 km, 34.2° (Epoch: 12 April)

Event Time Altitude Azimuth Distance (km) Brightness Sun altitude
Rises 02:33:01 0° 279° (W) 7,735 - -39.4°
Reaches altitude 10° 02:39:34 10° 269° (W) 6,884 - -38.5°
Maximum altitude 02:55:57 26° 224° (SW) 5,490 - -36.3°
Exits shadow 03:06:35 16° 188° (S) 5,628 13.6 -34.8°
Drops below altitude 10° 03:10:15 10° 178° (S) 5,910 13.8 -34.3°
Sets 03:15:22 0° 166° (SSE) 6,483 14.1 -33.5°
